EW2795 Weather Reports


Display with metric or nautical units.
time (UTC)temp
F
wind
direction
speed
MPH
gust
MPH
rain 1hr
in
rain 24hr
in
rain mn
in
humidity
%
barometer
mb
20260901011550 74 229 0.0 0.0 0.00 0.00 0.00 92 1015.1
20260901010042 74 229 0.0 0.0 0.00 0.00 0.00 91 1015.2
20260901004533 75 229 0.0 0.0 0.00 0.00 0.00 90 1015.0
20260901003024 76 229 0.0 0.0 0.00 0.00 0.00 88 1014.8
20260901001517 77 229 0.0 0.0 0.00 0.00 0.00 86 1014.8
20260901000008 78 229 0.0 0.0 0.00 0.00 0.00 84 1014.9
20260831234633 80 229 0.0 0.0 0.00 0.00 0.00 83 1015.0
20260831234502 80 229 0.0 0.0 0.00 0.00 0.00 82 1015.0
20260831233053 82 229 0.0 0.0 0.00 0.00 0.00 80 1014.8
20260831231540 83 229 0.0 0.0 0.00 0.00 0.00 77 1014.6
20260831230039 84 229 0.0 0.0 0.00 0.00 0.00 76 1014.6
20260831224519 84 244 1.0 0.0 0.00 0.00 0.00 72 1014.5
20260831223022 84 261 2.0 0.0 0.00 0.00 0.00 72 1014.3
20260831221505 84 242 1.0 0.0 0.00 0.00 0.00 74 1014.2
20260831220055 84 218 2.0 0.0 0.00 0.00 0.00 73 1014.1
20260831214557 85 187 4.0 0.0 0.00 0.00 0.00 71 1014.1
20260831213038 85 229 6.0 0.0 0.00 0.00 0.00 71 1013.9
20260831211532 85 232 2.0 0.0 0.00 0.00 0.00 75 1014.0
20260831210030 84 234 2.0 0.0 0.00 0.00 0.00 75 1014.2
20260831204510 84 209 3.0 0.0 0.00 0.00 0.00 74 1014.3
20260831203102 85 237 4.0 0.0 0.00 0.00 0.00 72 1014.5
20260831203003 85 224 4.0 0.0 0.00 0.00 0.00 73 1014.5
20260831201608 87 260 4.0 0.0 0.00 0.00 0.00 71 1014.4
20260831200041 86 238 4.0 0.0 0.00 0.00 0.00 70 1014.4
20260831194531 85 229 3.0 0.0 0.00 0.00 0.00 73 1014.6
20260831193035 86 207 5.0 0.0 0.00 0.00 0.00 67 1014.8
20260831191512 88 217 4.0 0.0 0.00 0.00 0.00 67 1014.9
20260831190007 87 222 4.0 0.0 0.00 0.00 0.00 71 1015.0
20260831184505 86 243 4.0 0.0 0.00 0.00 0.00 68 1015.3
20260831183100 87 213 4.0 0.0 0.00 0.00 0.00 68 1015.4
20260831181551 87 234 3.0 0.0 0.00 0.00 0.00 69 1015.6
20260831180040 88 290 4.0 0.0 0.00 0.00 0.00 66 1015.7
20260831174529 88 274 3.0 0.0 0.00 0.00 0.00 67 1015.8
20260831173020 86 228 4.0 0.0 0.00 0.00 0.00 69 1015.8
20260831171507 87 285 3.0 0.0 0.00 0.00 0.00 66 1016.1
20260831170053 87 227 3.0 0.0 0.00 0.00 0.00 68 1016.0
20260831164600 86 235 3.0 0.0 0.00 0.00 0.00 69 1016.2
20260831163028 86 233 4.0 0.0 0.00 0.00 0.00 68 1016.2
20260831161520 86 211 4.0 0.0 0.00 0.00 0.00 70 1016.2
20260831160005 85 203 3.0 0.0 0.00 0.00 0.00 71 1016.3
20260831154604 83 236 3.0 0.0 0.00 0.00 0.00 74 1016.4
20260831153035 83 207 3.0 0.0 0.00 0.00 0.00 74 1016.2
20260831151520 83 265 3.0 0.0 0.00 0.00 0.00 75 1016.5
20260831150002 82 200 3.0 0.0 0.00 0.00 0.00 78 1016.3
20260831144556 81 212 4.0 0.0 0.00 0.00 0.00 80 1016.2
20260831143029 79 210 3.0 0.0 0.00 0.00 0.00 82 1016.1
20260831141518 77 209 3.0 0.0 0.00 0.00 0.00 83 1016.1
20260831140007 77 197 2.0 0.0 0.00 0.00 0.00 84 1016.2
20260831134601 76 194 2.0 0.0 0.00 0.00 0.00 85 1016.3
20260831133050 76 193 2.0 0.0 0.00 0.00 0.00 87 1016.4
20260831131550 75 166 1.0 0.0 0.00 0.00 0.00 88 1016.4
20260831130029 74 209 1.0 0.0 0.00 0.00 0.00 90 1016.3
20260831124511 73 213 1.0 0.0 0.00 0.00 0.00 92 1016.4
20260831123054 73 213 0.0 0.0 0.00 0.00 0.00 92 1016.3
20260831121540 73 213 0.0 0.0 0.00 0.00 0.00 92 1016.3
20260831120037 73 214 0.0 0.0 0.00 0.00 0.00 92 1016.3
20260831114522 72 215 0.0 0.0 0.00 0.00 0.00 92 1016.3
20260831113013 72 194 0.0 0.0 0.00 0.00 0.00 92 1016.0
20260831111509 72 200 1.0 0.0 0.00 0.00 0.00 92 1015.7
20260831110004 72 200 0.0 0.0 0.00 0.00 0.00 92 1015.5
20260831104549 72 180 1.0 0.0 0.00 0.00 0.00 93 1015.4
20260831103044 72 178 1.0 0.0 0.00 0.00 0.00 94 1015.4
20260831101538 71 184 0.0 0.0 0.00 0.00 0.00 94 1015.4
20260831100044 71 129 0.0 0.0 0.00 0.00 0.00 94 1015.4
20260831094536 71 129 0.0 0.0 0.00 0.00 0.00 94 1015.4
20260831093042 71 129 0.0 0.0 0.00 0.00 0.00 94 1015.4
20260831091523 71 128 0.0 0.0 0.00 0.00 0.00 94 1015.5
20260831090014 70 128 0.0 0.0 0.00 0.00 0.00 94 1015.4
20260831084511 70 128 0.0 0.0 0.00 0.00 0.00 94 1015.2
20260831083103 71 128 0.0 0.0 0.00 0.00 0.00 94 1015.3
20260831081556 71 128 0.0 0.0 0.00 0.00 0.00 93 1015.3
20260831080109 71 128 0.0 0.0 0.00 0.00 0.00 93 1015.2
20260831074531 71 128 0.0 0.0 0.00 0.00 0.00 93 1015.3
20260831073022 71 128 0.0 0.0 0.00 0.00 0.00 92 1015.3
20260831071515 71 128 0.0 0.0 0.00 0.00 0.00 92 1015.5
20260831070010 72 128 0.0 0.0 0.00 0.00 0.00 91 1015.6
20260831064504 72 128 0.0 0.0 0.00 0.00 0.00 90 1015.4
20260831063106 72 128 0.0 0.0 0.00 0.00 0.00 90 1015.6
20260831061543 72 128 0.0 0.0 0.00 0.00 0.00 90 1015.8
20260831060032 72 128 0.0 0.0 0.00 0.00 0.00 90 1015.9
20260831054532 72 128 0.0 0.0 0.00 0.00 0.00 90 1015.9
20260831053032 72 128 0.0 0.0 0.00 0.00 0.00 90 1016.1
20260831051520 72 95 0.0 0.0 0.00 0.00 0.00 91 1016.1
20260831050010 72 95 0.0 0.0 0.00 0.00 0.00 91 1016.1
20260831044642 71 95 0.0 0.0 0.00 0.00 0.00 92 1016.0
20260831044502 71 95 0.0 0.0 0.00 0.00 0.00 92 1016.0
20260831043052 71 82 0.0 0.0 0.00 0.00 0.00 92 1016.0
20260831041544 71 82 0.0 0.0 0.00 0.00 0.00 92 1016.0
20260831040038 71 74 0.0 0.0 0.00 0.00 0.00 92 1016.1
20260831034533 71 74 0.0 0.0 0.00 0.00 0.00 92 1016.2
20260831033032 71 74 0.0 0.0 0.00 0.00 0.00 92 1016.3
20260831031531 71 74 0.0 0.0 0.00 0.00 0.00 91 1016.4
20260831030103 71 74 0.0 0.0 0.00 0.00 0.00 91 1016.5
20260831024537 71 74 0.0 0.0 0.00 0.00 0.00 92 1016.4
20260831023029 72 74 0.0 0.0 0.00 0.00 0.00 93 1016.4
20260831021519 72 74 0.0 0.0 0.00 0.00 0.00 93 1016.5
20260831020007 72 74 0.0 0.0 0.00 0.00 0.00 93 1016.7
20260831014553 72 74 0.0 0.0 0.00 0.00 0.00 92 1016.7
20260831013045 72 74 0.0 0.0 0.00 0.00 0.00 92 1016.5